DW4118 Weather Reports


time (UTC)temp
F
wind
direction
speed
knots
gust
knots
rain 1hr
in
rain 24hr
in
rain mn
in
humidity
%
barometer
mb
20260503194532 89 120 0.0 1.7 0.00 0.00 0.00 21 1007.5
20260503193027 88 166 0.9 2.6 0.00 0.00 0.00 30 1007.7
20260503191524 89 290 0.0 2.6 0.00 0.00 0.00 21 1007.9
20260503190039 88 79 0.9 2.6 0.00 0.00 0.00 22 1008.0
20260503184518 87 127 0.0 1.7 0.00 0.00 0.00 28 1008.1
20260503183017 86 68 0.9 3.5 0.00 0.00 0.00 27 1008.3
20260503181513 86 148 0.9 3.5 0.00 0.00 0.00 25 1008.4
20260503180013 85 112 0.0 2.6 0.00 0.00 0.00 28 1008.5
20260503174506 83 219 0.0 3.5 0.00 0.00 0.00 33 1008.7
20260503173003 81 177 0.0 2.6 0.00 0.00 0.00 41 1008.7
20260503171559 80 66 0.0 0.9 0.00 0.00 0.00 40 1008.9
20260503171501 80 66 0.0 0.9 0.00 0.00 0.00 43 1008.9
20260503130119 53 88 0.0 0.9 0.00 0.00 0.00 79 1009.4
20260503100107 54 28 0.0 7.0 0.00 0.00 0.00 81 1010.0
20260503081546 57 77 0.0 1.7 0.00 0.00 0.00 83 1010.2
20260503071546 58 75 0.0 3.5 0.00 0.00 0.00 86 1010.4
20260503054538 60 327 0.0 0.0 0.00 0.02 0.00 84 1010.5
20260503053033 60 58 0.9 3.5 0.00 0.02 0.00 83 1010.5
20260503051530 60 156 0.0 1.7 0.00 0.02 0.00 83 1010.3
20260503050031 62 326 0.9 6.1 0.00 0.02 0.00 80 1010.0
20260503044531 61 351 0.0 3.5 0.00 0.02 0.00 80 1010.3
20260503043031 62 30 0.0 11.3 0.00 0.02 0.00 79 1010.3
20260503041529 62 139 2.6 7.8 0.00 0.02 0.00 80 1010.5
20260503040029 62 117 1.7 7.8 0.00 0.02 0.00 80 1010.6
20260503034528 61 51 0.0 1.7 0.00 0.02 0.00 82 1010.8
20260503033039 61 98 0.0 0.9 0.00 0.02 0.00 81 1010.7
20260503031527 61 100 0.0 2.6 0.00 0.02 0.00 81 1010.5
20260503030026 61 37 0.0 1.7 0.00 0.02 0.00 81 1010.6
20260503024525 62 358 0.0 0.0 0.00 0.02 0.00 80 1010.7
20260503023025 63 29 0.0 0.9 0.00 0.02 0.00 78 1010.5
20260503021528 64 290 0.0 0.0 0.00 0.02 0.00 77 1010.4
20260503020025 64 290 0.0 0.0 0.00 0.02 0.00 75 1009.8
20260503014540 65 290 0.0 0.0 0.00 0.02 0.00 73 1009.6
20260503013025 66 290 0.0 0.9 0.00 0.02 0.00 73 1009.4
20260503011523 66 275 0.0 0.9 0.00 0.02 0.00 70 1009.3
20260503010023 66 278 0.0 0.9 0.00 0.02 0.00 70 1009.2
20260503004527 67 11 0.0 0.9 0.00 0.02 0.00 68 1009.3
20260503003022 67 11 0.0 1.7 0.00 0.02 0.00 66 1009.2
20260503001525 68 44 0.0 0.9 0.00 0.02 0.00 66 1009.1
20260503000019 68 68 0.0 1.7 0.00 0.02 0.00 66 1009.1
20260502234516 67 280 0.0 1.7 0.00 0.02 0.00 69 1009.4
20260502233016 67 291 0.0 0.9 0.00 0.02 0.00 68 1009.3
20260502231516 66 347 0.0 3.5 0.00 0.02 0.00 69 1009.6
20260502230016 66 339 0.0 0.9 0.00 0.02 0.00 69 1009.6
20260502224510 66 245 0.0 3.5 0.00 0.02 0.00 68 1009.7
20260502223010 65 274 0.0 2.6 0.00 0.02 0.00 69 1009.9
20260502221508 65 269 0.0 1.7 0.00 0.02 0.00 68 1010.2
20260502220006 66 153 0.0 1.7 0.00 0.02 0.00 67 1010.3
20260502214506 65 147 0.0 2.6 0.00 0.02 0.00 69 1010.5
20260502213001 65 178 0.0 3.5 0.00 0.02 0.00 68 1010.7
20260502211637 64 311 0.9 3.5 0.00 0.02 0.00 70 1010.8
20260502210108 62 20 0.0 3.5 0.00 0.02 0.00 75 1011.1
20260502204552 61 323 0.0 3.5 0.00 0.02 0.00 77 1011.3
20260502203058 61 283 0.9 4.3 0.00 0.02 0.00 74 1011.4
20260502201556 59 207 0.0 3.5 0.00 0.02 0.00 78 1011.6
20260502200051 61 311 0.9 3.5 0.00 0.02 0.00 74 1011.8